Location: Anjeux
(47.8815°N, 6.2076°E)
Time: 11:32:55
(UTC+00:00)

AO-27 - Pass Details

Date: 15 December 2021
Orbit: 784 x 798 km, 98.9° (Epoch: 24 January)

Event Time Altitude Azimuth Distance (km) Brightness Sun altitude
Rises 06:07:29 0° 25° (NNE) 3,308 10.9 -11.2°
Reaches altitude 10° 06:10:15 10° 39° (NE) 2,371 10.3 -10.7°
Maximum altitude 06:14:30 25° 93° (E) 1,568 10.2 -10.1°
Drops below altitude 10° 06:18:42 10° 148° (SSE) 2,349 11.1 -9.4°
Sets 06:21:25 0° 161° (SSE) 3,271 11.6 -9.0°
